User: anonymous   Login
Location: Gull Harbor
(47.1000°N, 122.9000°W)
Time: 16:31:09
(UTC-07:00)
Language:

STARLINK-2672 - Orbit

View from above orbital plane
View from above orbital plane
View from above satellite
View from above satellite

Ground track
Ground track

The orbit data is extracted from the following two-line orbital elements,

1 48650C 21044N   21300.72361300  .00004889  00000-0  32753-3 0  3000
2 48650  53.0541  77.2032 0001738  84.6707   9.8449 15.06397696    12
Epoch (UTC): 27 October 2021 17:22:00
Eccentricity: 0.0001738
inclination: 53.0541°
perigee height: 546 km
apogee height: 548 km
right ascension of ascending node: 77.2032°
argument of perigee: 84.6707°
revolutions per day: 15.06397696
mean anomaly at epoch: 9.8449°
orbit number at epoch: 1

The dashed part of the orbit path shows where the satellite is in the earth's shadow,  

DLR